Terminal Aerodrome Forecast
Issued by NWS

Home | Current Version | Previous Version | Graphics & Text | Print | Product List | Glossary On
Versions: 1 2 3 4 5 6 7 8 9 10 11 12 13 14 15 16 17
302
FTUS42 KMHX 271756
TAFOAJ
TAF
KOAJ 271756Z 2718/2818 VRB03KT P6SM SCT040
     FM272100 VRB04KT P6SM VCSH BKN050
     FM280600 VRB03KT 3SM BR SCT007 BKN040
     FM281300 17006KT P6SM BKN040
      AMD LTD TO CLD VIS AND WIND=

USA.gov is the U.S. government's official web portal to all federal, state and local government web resources and services.